S5 DEB (44066 NORAD) Tracking and Keplerian Element Data

This shows tracking and keplerian element data for the satellite.

Feedback or suggestion? Click here.




ElementValue
Catalog44066
NameS5 DEB
Epoch Orbit20
Epoch Day82.31684522
Epoch Year2019
RAAN277.5726
Inclination0.0437
Eccentricity0.0003829
Argument of Perigee280.9959
Mean Anonmoly161.3961
Mean Motion0.98982383
Decay Rate5.4E-07
L11 44066U 19009E 19082.31684522 .00000054 00000-0 00000-0 0 9999
L22 44066 0.0437 277.5726 0003829 280.9959 161.3961 0.98982383 205

Live tracking and technical data element details for S5 DEB (NORAD 44066). S5 DEB can be tracked NOW for your location showing map with azimuth and elevation plus other details from your city location.

Track the satellite on the map from your city or location and see movement details for azimuth, elevation, latitude, longitude, range, height, and movement on the map or in text.







IsCatalogInMostPopularTable: catalog: 44066, numindb: 42
Update: records affected: 1



GetName: 44066 S5 DEB

Hit Count: updated at: Mon, 22 Jul 2019 16:01:14 GMT